Location: Unspecified
(0.0000°N, 0.0000°E)
Time: 22:47:19
(UTC+00:00)

N. Korean satellite - Visible Passes

Search period start: 27 October 2021 00:00
Search period end: 06 November 2021 00:00
Orbit: 450 x 494 km, 97.3° (Epoch: 27 October)

Date Brightness Start Highest point End Pass type
(mag) Time Alt. Az. Time Alt. Az. Time Alt. Az.
27 Oct 9.0 04:22:36 10° NE 04:25:30 24° E 04:28:23 10° SSE visible
29 Oct 6.4 04:58:49 10° N 05:02:19 71° W 05:05:47 10° SSW visible
30 Oct 8.4 04:31:02 10° NE 04:34:14 33° E 04:37:24 10° SSE visible
31 Oct 10.1 04:04:51 10° E 04:06:08 12° E 04:07:23 10° ESE visible
01 Nov 6.7 05:07:35 10° N 05:10:58 47° W 05:14:19 10° SSW visible
02 Nov 7.5 04:39:29 10° NNE 04:42:51 48° E 04:46:12 10° S visible
03 Nov 9.7 04:12:31 10° ENE 04:14:43 16° E 04:16:54 10° SE visible
04 Nov 7.2 05:16:22 10° NNW 05:19:31 33° W 05:22:39 10° SW visible
05 Nov 6.7 04:47:54 10° NNE 04:51:22 71° ESE 04:54:47 10° S visible
